K5RG-3 Weather Reports


time (UTC)temp
C
wind
direction
speed
KPH
gust
KPH
rain 1hr
cm
rain 24hr
cm
rain mn
cm
humidity
%
barometer
mb
20260510204546 28 125 1.6 6.4 0.00 0.00 0.00 78 1011.1
20260510203046 29 71 3.2 16.1 0.00 0.00 0.00 77 1011.1
20260510201543 29 112 1.6 16.1 0.00 0.00 0.00 75 1011.0
20260510200044 29 155 1.6 11.3 0.00 0.00 0.00 74 1011.0
20260510194543 29 165 0.0 4.8 0.00 0.00 0.00 76 1011.0
20260510193057 29 133 0.0 16.1 0.00 0.00 0.00 76 1011.1
20260510191542 29 126 0.0 6.4 0.00 0.00 0.00 76 1011.2
20260510190039 28 98 1.6 14.5 0.00 0.00 0.00 77 1011.3
20260510184539 28 100 6.4 19.3 0.00 0.00 0.00 76 1011.5
20260510183046 28 74 9.7 20.9 0.00 0.00 0.00 78 1011.7
20260510181539 28 91 11.3 22.5 0.00 0.00 0.00 77 1011.7
20260510180047 28 96 3.2 19.3 0.00 0.00 0.00 78 1011.8
20260510174536 29 97 1.6 17.7 0.00 0.00 0.00 77 1012.0
20260510173035 29 129 0.0 14.5 0.00 0.00 0.00 76 1012.0
20260510171534 28 66 8.0 17.7 0.00 0.00 0.00 76 1012.2
20260510170035 28 108 8.0 20.9 0.00 0.00 0.00 77 1012.2
20260510164546 28 64 12.9 20.9 0.00 0.00 0.00 77 1012.4
20260510163028 28 83 6.4 17.7 0.00 0.00 0.00 78 1012.4
20260510161524 27 124 9.7 17.7 0.00 0.00 0.00 82 1012.5
20260510160027 27 54 9.7 20.9 0.00 0.00 0.00 83 1012.7
20260510154523 27 94 12.9 20.9 0.00 0.00 0.00 83 1012.7
20260510153027 27 80 8.0 16.1 0.00 0.00 0.00 81 1012.9
20260510151517 27 75 3.2 12.9 0.00 0.00 0.00 83 1012.8
20260510150014 27 126 1.6 14.5 0.00 0.00 0.00 84 1012.8
20260510144513 27 73 4.8 16.1 0.00 0.00 0.00 86 1012.8
20260510143009 26 74 1.6 16.1 0.00 0.00 0.00 86 1012.9
20260510141508 26 109 6.4 16.1 0.00 0.00 0.00 87 1012.7
20260510140006 26 75 1.6 16.1 0.00 0.00 0.00 88 1012.5
20260510134502 26 84 0.0 8.0 0.00 0.00 0.00 90 1012.4
20260510133103 25 69 1.6 8.0 0.00 0.00 0.00 90 1012.2
20260510131603 25 64 3.2 6.4 0.00 0.00 0.00 91 1011.9
20260510130051 25 86 0.0 3.2 0.00 0.00 0.00 91 1011.5
20260510124607 25 89 0.0 4.8 0.00 0.00 0.00 91 1011.2
20260510123043 25 87 0.0 0.0 0.00 0.00 0.00 91 1011.0
20260510121542 24 127 0.0 0.0 0.00 0.00 0.00 91 1010.7
20260510120039 24 127 0.0 0.0 0.00 0.00 0.00 91 1010.5
20260510114538 24 121 0.0 0.0 0.00 0.00 0.00 91 1010.2
20260510113036 24 121 0.0 0.0 0.00 0.00 0.00 91 1009.9
20260510111557 24 123 0.0 0.0 0.00 0.00 0.00 92 1009.8
20260510110036 24 123 0.0 0.0 0.00 0.00 0.00 92 1009.5
20260510104541 24 116 0.0 0.0 0.00 0.00 0.00 92 1009.3
20260510103035 24 167 0.0 4.8 0.00 0.00 0.00 92 1009.2
20260510101531 24 96 0.0 3.2 0.00 0.00 0.00 92 1009.2
20260510100030 24 203 0.0 3.2 0.00 0.00 0.00 93 1009.1
20260510094531 24 248 0.0 1.6 0.00 0.00 0.00 93 1009.0
20260510093029 24 203 0.0 3.2 0.00 0.00 0.00 93 1009.1
20260510091547 23 88 0.0 0.0 0.00 0.00 0.00 93 1009.2
20260510090029 23 77 0.0 0.0 0.00 0.00 0.00 93 1009.2
20260510084528 23 73 0.0 0.0 0.00 0.00 0.00 93 1009.1
20260510083026 23 139 0.0 0.0 0.00 0.00 0.00 93 1009.0
20260510081536 23 139 0.0 0.0 0.00 0.00 0.00 92 1009.0
20260510080031 23 79 0.0 0.0 0.00 0.00 0.00 92 1009.0
20260510074529 23 71 0.0 1.6 0.00 0.00 0.00 92 1008.8
20260510073034 23 139 0.0 1.6 0.00 0.00 0.00 92 1008.8
20260510071533 23 148 0.0 3.2 0.00 0.00 0.00 91 1008.8
20260510070025 24 134 0.0 3.2 0.00 0.00 0.00 91 1009.0
20260510064545 24 123 0.0 1.6 0.00 0.00 0.00 90 1008.9
20260510063022 24 96 0.0 1.6 0.00 0.00 0.00 89 1009.1
20260510061531 24 117 0.0 3.2 0.00 0.00 0.00 89 1009.3
20260510060028 24 152 0.0 4.8 0.00 0.00 0.00 89 1009.3
20260510054517 24 196 0.0 0.0 0.00 0.00 0.00 90 1009.4
20260510053011 25 146 0.0 3.2 0.00 0.00 0.00 90 1009.4
20260510051510 25 134 0.0 3.2 0.00 0.00 0.00 90 1009.5
20260510050007 25 80 1.6 12.9 0.00 0.00 0.00 89 1009.7
20260510044509 25 150 1.6 12.9 0.00 0.00 0.00 89 1009.8
20260510043007 25 120 1.6 22.5 0.00 0.00 0.00 90 1010.1
20260510041506 25 111 14.5 29.0 0.00 0.00 0.00 90 1010.3
20260510040007 25 107 1.6 12.9 0.00 0.00 0.00 90 1010.4
20260510034505 25 108 0.0 3.2 0.00 0.00 0.00 90 1010.0
20260510033004 25 125 0.0 11.3 0.00 0.00 0.00 90 1009.8
20260510031504 25 62 11.3 22.5 0.00 0.00 0.00 90 1010.1
20260510030002 25 66 3.2 20.9 0.00 0.00 0.00 90 1009.8
20260510024601 25 124 9.7 24.1 0.00 0.00 0.00 88 1009.7
20260510023057 26 97 1.6 6.4 0.00 0.00 0.00 88 1009.3
20260510021555 26 98 0.0 11.3 0.00 0.00 0.00 87 1009.1
20260510020054 26 85 1.6 4.8 0.00 0.00 0.00 84 1008.6
20260510014555 26 88 1.6 9.7 0.00 0.00 0.00 80 1008.2
20260510013055 27 153 0.0 0.0 0.00 0.00 0.00 78 1007.8
20260510011552 27 149 0.0 1.6 0.00 0.00 0.00 76 1007.5
20260510010052 27 115 0.0 3.2 0.00 0.00 0.00 75 1006.7
20260510004551 28 156 0.0 3.2 0.00 0.00 0.00 73 1006.9
20260510003057 29 175 0.0 1.6 0.00 0.00 0.00 64 1006.8
20260510001551 29 145 0.0 4.8 0.00 0.00 0.00 63 1006.7
20260510000055 30 138 0.0 0.0 0.00 0.00 0.00 69 1006.5
20260509234602 30 117 0.0 1.6 0.00 0.00 0.00 68 1006.2
20260509233055 30 152 0.0 4.8 0.00 0.00 0.00 69 1006.2
20260509231605 30 148 0.0 3.2 0.00 0.00 0.00 72 1006.3
20260509230054 30 144 0.0 3.2 0.00 0.00 0.00 72 1006.2
20260509224547 30 84 0.0 8.0 0.00 0.00 0.00 73 1006.1
20260509223048 30 74 3.2 8.0 0.00 0.00 0.00 74 1006.1
20260509221546 30 110 3.2 12.9 0.00 0.00 0.00 74 1006.0
20260509220045 31 104 1.6 6.4 0.00 0.00 0.00 74 1005.9
20260509214546 31 83 3.2 14.5 0.00 0.00 0.00 73 1005.9
20260509213046 31 86 3.2 19.3 0.00 0.00 0.00 72 1005.8
20260509211550 32 325 3.2 8.0 0.00 0.00 0.00 66 1005.9
20260509210055 32 245 1.6 8.0 0.00 0.00 0.00 60 1005.9